• In Romania
  • List of Countries
  • For 7 days
  • Water Temperature
  • Satellite Maps
  • Weather Map
  • Weather Widgets
  • user-avatar
    Login

    Hourly Weather Satif

    Today, 26 April, Wednesday

    Time Temperature Precipitation Wind Pressure Humidity
    00:00 +13°C° 0 mm 2 mps 667 mmHg 54%
    01:00 +12°C° 0 mm 2 mps 667 mmHg 54%
    02:00 +12°C° 0 mm 2 mps 667 mmHg 54%
    03:00 +12°C° 0 mm 2 mps 667 mmHg 54%
    04:00 +13°C° 0 mm 2 mps 667 mmHg 54%
    05:00 +13°C° 0 mm 2 mps 667 mmHg 53%
    06:00 +13°C° 0 mm 2 mps 667 mmHg 53%
    07:00 +16°C° 0 mm 3 mps 668 mmHg 47%
    08:00 +19°C° 0 mm 3 mps 669 mmHg 40%
    09:00 +22°C° 0 mm 4 mps 670 mmHg 33%
    10:00 +23°C° 0 mm 4 mps 670 mmHg 31%
    11:00 +25°C° 0 mm 4 mps 670 mmHg 29%
    12:00 +26°C° 0 mm 4 mps 670 mmHg 27%
    13:00 +25°C° 0.1 mm 4 mps 670 mmHg 30%
    14:00 +23°C° 0.1 mm 4 mps 670 mmHg 34%
    15:00 +22°C° 0.1 mm 4 mps 669 mmHg 37%
    16:00 +21°C° 0.1 mm 3 mps 669 mmHg 46%
    17:00 +19°C° 0.1 mm 2 mps 668 mmHg 54%
    18:00 +18°C° 0.1 mm 1 mps 668 mmHg 63%
    19:00 +16°C° 0.3 mm 1 mps 668 mmHg 65%
    20:00 +16°C° 0.3 mm 1 mps 668 mmHg 67%
    21:00 +15°C° 0.3 mm 2 mps 668 mmHg 69%
    22:00 +15°C° 0.5 mm 2 mps 668 mmHg 70%
    23:00 +14°C° 0.5 mm 2 mps 668 mmHg 71%

    Tomorrow, 27 April, Thursday

    Time Temperature Precipitation Wind Pressure Humidity
    00:00 +14°C° 0.5 mm 2 mps 668 mmHg 72%
    01:00 +14°C° 0.3 mm 2 mps 667 mmHg 71%
    02:00 +13°C° 0.3 mm 3 mps 667 mmHg 71%
    03:00 +13°C° 0.3 mm 3 mps 667 mmHg 71%
    04:00 +13°C° 0.1 mm 3 mps 667 mmHg 69%
    05:00 +15°C° 0.1 mm 2 mps 667 mmHg 68%
    06:00 +15°C° 0.1 mm 2 mps 667 mmHg 66%
    07:00 +17°C° 0 mm 3 mps 668 mmHg 57%
    08:00 +20°C° 0 mm 3 mps 669 mmHg 47%
    09:00 +23°C° 0 mm 4 mps 670 mmHg 37%
    10:00 +23°C° 0 mm 4 mps 670 mmHg 35%
    11:00 +25°C° 0 mm 5 mps 670 mmHg 33%
    12:00 +26°C° 0 mm 5 mps 670 mmHg 31%
    13:00 +26°C° 0.1 mm 5 mps 670 mmHg 31%
    14:00 +26°C° 0.1 mm 5 mps 669 mmHg 31%
    15:00 +26°C° 0.1 mm 5 mps 669 mmHg 31%
    16:00 +22°C° 0.3 mm 4 mps 668 mmHg 42%
    17:00 +20°C° 0.3 mm 3 mps 668 mmHg 53%
    18:00 +17°C° 0.3 mm 2 mps 667 mmHg 64%
    19:00 +16°C° 0.6 mm 2 mps 668 mmHg 73%
    20:00 +14°C° 0.6 mm 2 mps 668 mmHg 81%
    21:00 +13°C° 0.6 mm 2 mps 668 mmHg 90%
    22:00 +12°C° 0.4 mm 2 mps 668 mmHg 90%
    23:00 +12°C° 0.4 mm 2 mps 669 mmHg 89%

    Day after tomorrow, 28 April, Friday

    Time Temperature Precipitation Wind Pressure Humidity
    00:00 +12°C° 0.4 mm 2 mps 669 mmHg 89%
    01:00 +12°C° 0.2 mm 2 mps 668 mmHg 89%
    02:00 +10°C° 0.2 mm 2 mps 668 mmHg 89%
    03:00 +10°C° 0.2 mm 2 mps 668 mmHg 89%
    04:00 +10°C° 0.1 mm 2 mps 668 mmHg 89%
    05:00 +10°C° 0.1 mm 2 mps 668 mmHg 88%
    06:00 +12°C° 0.1 mm 2 mps 668 mmHg 87%
    07:00 +13°C° 0.1 mm 2 mps 669 mmHg 82%
    08:00 +13°C° 0.1 mm 3 mps 669 mmHg 76%
    09:00 +14°C° 0.1 mm 3 mps 670 mmHg 71%
    10:00 +17°C° 0.1 mm 3 mps 670 mmHg 67%
    11:00 +18°C° 0.1 mm 3 mps 670 mmHg 62%
    12:00 +19°C° 0.1 mm 3 mps 670 mmHg 58%
    13:00 +19°C° 0.1 mm 3 mps 669 mmHg 59%
    14:00 +18°C° 0.1 mm 3 mps 669 mmHg 61%
    15:00 +18°C° 0.1 mm 4 mps 669 mmHg 62%
    16:00 +15°C° 0.4 mm 4 mps 668 mmHg 70%
    17:00 +13°C° 0.4 mm 3 mps 668 mmHg 78%
    18:00 +12°C° 0.4 mm 3 mps 668 mmHg 86%
    19:00 +11°C° 1.6 mm 3 mps 668 mmHg 88%
    20:00 +11°C° 1.6 mm 3 mps 668 mmHg 90%
    21:00 +10°C° 1.6 mm 2 mps 669 mmHg 92%
    22:00 +10°C° 0.6 mm 2 mps 669 mmHg 93%
    23:00 +10°C° 0.6 mm 2 mps 668 mmHg 93%

    29 April, Saturday

    Time Temperature Precipitation Wind Pressure Humidity
    00:00 +10°C° 0.6 mm 2 mps 668 mmHg 93%
    01:00 +10°C° 0.2 mm 2 mps 668 mmHg 93%
    02:00 +10°C° 0.2 mm 1 mps 667 mmHg 93%
    03:00 +10°C° 0.2 mm 1 mps 667 mmHg 93%
    04:00 +11°C° 0.1 mm 1 mps 667 mmHg 93%
    05:00 +11°C° 0.1 mm 1 mps 668 mmHg 92%
    06:00 +10°C° 0.1 mm 2 mps 668 mmHg 91%
    07:00 +12°C° 0.1 mm 1 mps 668 mmHg 87%
    08:00 +13°C° 0.1 mm 1 mps 669 mmHg 83%
    09:00 +14°C° 0.1 mm 1 mps 670 mmHg 79%
    10:00 +16°C° 0 mm 1 mps 670 mmHg 72%
    11:00 +18°C° 0 mm 1 mps 670 mmHg 66%
    12:00 +19°C° 0 mm 2 mps 670 mmHg 59%
    13:00 +19°C° 0.3 mm 2 mps 670 mmHg 59%
    14:00 +19°C° 0.3 mm 2 mps 670 mmHg 59%
    15:00 +19°C° 0.3 mm 3 mps 670 mmHg 58%
    16:00 +18°C° 0.4 mm 2 mps 669 mmHg 65%
    17:00 +16°C° 0.4 mm 2 mps 669 mmHg 73%
    18:00 +15°C° 0.4 mm 2 mps 669 mmHg 80%
    19:00 +13°C° 0.3 mm 1 mps 669 mmHg 84%
    20:00 +12°C° 0.3 mm 1 mps 669 mmHg 89%
    21:00 +10°C° 0.3 mm 1 mps 669 mmHg 94%
    22:00 +10°C° 0 mm 1 mps 669 mmHg 94%
    23:00 +10°C° 0 mm 1 mps 669 mmHg 94%

    30 April, Sunday

    Time Temperature Precipitation Wind Pressure Humidity
    00:00 +10°C° 0 mm 1 mps 668 mmHg 94%
    01:00 +10°C° 0 mm 1 mps 668 mmHg 94%
    02:00 +10°C° 0 mm 1 mps 668 mmHg 93%
    03:00 +10°C° 0 mm 1 mps 668 mmHg 93%
    04:00 +11°C° 0.1 mm 1 mps 668 mmHg 89%
    05:00 +12°C° 0.1 mm 1 mps 669 mmHg 86%
    06:00 +13°C° 0.1 mm 1 mps 669 mmHg 82%
    07:00 +15°C° 0 mm 1 mps 670 mmHg 71%
    08:00 +19°C° 0 mm 1 mps 671 mmHg 60%
    09:00 +20°C° 0 mm 2 mps 671 mmHg 49%
    10:00 +23°C° 0.1 mm 2 mps 671 mmHg 45%
    11:00 +24°C° 0.1 mm 2 mps 671 mmHg 41%
    12:00 +25°C° 0.1 mm 3 mps 671 mmHg 37%
    13:00 +22°C° 1.3 mm 3 mps 671 mmHg 48%
    14:00 +20°C° 1.3 mm 3 mps 670 mmHg 58%
    15:00 +19°C° 1.3 mm 3 mps 670 mmHg 69%
    16:00 +17°C° 0.4 mm 2 mps 670 mmHg 75%
    17:00 +16°C° 0.4 mm 2 mps 670 mmHg 81%
    18:00 +15°C° 0.4 mm 1 mps 670 mmHg 86%
    19:00 +14°C° 0 mm 1 mps 670 mmHg 89%
    20:00 +12°C° 0 mm 1 mps 670 mmHg 91%
    21:00 +11°C° 0 mm 1 mps 671 mmHg 94%
    22:00 +11°C° 0 mm 1 mps 671 mmHg 93%
    23:00 +10°C° 0 mm 1 mps 671 mmHg 93%

    1 May, Monday

    Time Temperature Precipitation Wind Pressure Humidity
    00:00 +10°C° 0 mm 1 mps 670 mmHg 93%
    01:00 +10°C° 0 mm 1 mps 670 mmHg 93%
    02:00 +9°C° 0 mm 1 mps 670 mmHg 93%
    03:00 +9°C° 0 mm 1 mps 670 mmHg 93%
    04:00 +10°C° 0 mm 1 mps 671 mmHg 91%
    05:00 +11°C° 0 mm 1 mps 672 mmHg 89%
    06:00 +11°C° 0 mm 1 mps 672 mmHg 87%
    07:00 +13°C° 0 mm 2 mps 673 mmHg 78%
    08:00 +15°C° 0 mm 2 mps 674 mmHg 69%
    09:00 +17°C° 0 mm 2 mps 675 mmHg 60%
    10:00 +18°C° 0 mm 2 mps 675 mmHg 54%
    11:00 +20°C° 0 mm 2 mps 675 mmHg 48%
    12:00 +21°C° 0 mm 2 mps 675 mmHg 42%
    13:00 +21°C° 0 mm 3 mps 675 mmHg 44%
    14:00 +21°C° 0 mm 3 mps 675 mmHg 45%
    15:00 +20°C° 0 mm 3 mps 675 mmHg 46%
    16:00 +19°C° 0 mm 3 mps 675 mmHg 54%
    17:00 +17°C° 0 mm 2 mps 674 mmHg 62%
    18:00 +16°C° 0 mm 2 mps 674 mmHg 69%
    19:00 +14°C° 0 mm 2 mps 674 mmHg 75%
    20:00 +12°C° 0 mm 2 mps 674 mmHg 81%
    21:00 +10°C° 0 mm 1 mps 674 mmHg 88%
    22:00 +10°C° 0 mm 1 mps 674 mmHg 88%
    23:00 +9°C° 0 mm 1 mps 674 mmHg 88%
    Show more